KG6SIB Weather Reports


time (UTC)temp
F
wind
direction
speed
knots
gust
knots
rain 1hr
in
rain 24hr
in
rain mn
in
humidity
%
barometer
mb
20260906174242 78 254 0.0 0.0 0.00 0.01 0.01 64 1017.5
20260906173741 78 254 0.0 0.0 0.00 0.01 0.01 64 1017.5
20260906172742 77 255 0.0 2.6 0.00 0.01 0.01 66 1017.5
20260906172241 77 256 0.0 3.5 0.00 0.01 0.01 67 1017.6
20260906171741 77 257 3.5 3.5 0.00 0.01 0.01 65 1017.5
20260906171241 77 240 0.0 3.5 0.00 0.01 0.01 66 1017.5
20260906170741 77 241 1.7 1.7 0.00 0.01 0.01 69 1017.4
20260906170241 76 241 0.0 0.9 0.00 0.01 0.01 69 1017.1
20260906165741 76 241 0.0 2.6 0.00 0.01 0.01 68 1017.1
20260906165241 76 241 0.9 4.3 0.00 0.01 0.01 69 1017.1
20260906164741 76 241 0.0 4.3 0.00 0.01 0.01 68 1017.0
20260906164241 76 238 0.9 4.3 0.00 0.01 0.01 68 1016.9
20260906162741 75 246 0.0 3.5 0.00 0.01 0.01 72 1016.9
20260906162240 75 249 0.9 4.3 0.00 0.01 0.01 74 1016.8
20260906161740 74 250 0.0 4.3 0.00 0.01 0.01 75 1016.6
20260906160240 73 241 0.9 3.5 0.00 0.01 0.01 78 1016.6
20260906155741 72 33 0.0 0.0 0.00 0.01 0.01 83 1016.6
20260906155240 72 33 0.0 0.0 0.00 0.01 0.01 86 1016.8
20260906154740 71 32 0.0 0.0 0.00 0.01 0.01 88 1016.8
20260906153240 70 33 0.0 0.0 0.00 0.01 0.01 91 1016.6
20260906152740 69 33 0.0 0.0 0.00 0.01 0.01 91 1016.5
20260906152240 69 33 0.0 0.0 0.00 0.01 0.01 91 1016.5
20260906151740 69 33 0.0 0.0 0.00 0.01 0.01 92 1016.4
20260906151240 69 33 0.0 0.0 0.00 0.01 0.01 92 1016.4
20260906150739 68 33 0.0 0.0 0.00 0.01 0.01 92 1016.3
20260906150239 68 33 0.0 2.6 0.00 0.01 0.01 92 1016.4
20260906145740 68 33 0.0 2.6 0.00 0.01 0.01 92 1016.7
20260906145240 67 33 1.7 2.6 0.00 0.01 0.01 92 1016.5
20260906144740 67 33 1.7 2.6 0.00 0.01 0.01 92 1016.5
20260906143740 67 59 1.7 3.5 0.00 0.01 0.01 92 1016.5
20260906143239 66 64 0.9 3.5 0.00 0.01 0.01 92 1016.4
20260906142739 66 61 1.7 2.6 0.00 0.01 0.01 92 1016.3
20260906142239 66 57 1.7 2.6 0.00 0.01 0.01 92 1016.3
20260906141239 66 57 1.7 4.3 0.00 0.01 0.01 92 1016.2
20260906140739 66 49 1.7 4.3 0.00 0.01 0.01 92 1016.1
20260906135739 65 68 2.6 3.5 0.00 0.01 0.01 92 1016.0
20260906135239 65 71 2.6 4.3 0.00 0.01 0.01 92 1015.9
20260906134739 65 82 1.7 4.3 0.00 0.01 0.01 92 1015.9
20260906134239 65 60 1.7 4.3 0.00 0.01 0.01 92 1015.8
20260906133739 65 67 1.7 4.3 0.00 0.01 0.01 92 1015.8
20260906133238 65 70 3.5 3.5 0.00 0.01 0.01 92 1015.8
20260906132740 65 69 2.6 3.5 0.00 0.01 0.01 92 1015.7
20260906132239 65 63 2.6 3.5 0.00 0.01 0.01 92 1015.7
20260906131738 65 63 0.9 3.5 0.00 0.01 0.01 92 1015.7
20260906131239 65 61 1.7 2.6 0.00 0.01 0.01 91 1015.7
20260906130738 65 62 1.7 3.5 0.00 0.01 0.01 91 1015.6
20260906130238 65 62 2.6 4.3 0.00 0.01 0.01 91 1015.6
20260906125738 65 61 1.7 4.3 0.00 0.01 0.01 91 1015.8
20260906125227 65 62 3.5 4.3 0.00 0.01 0.01 91 1015.8
20260906124738 66 55 1.7 4.3 0.00 0.01 0.01 91 1016.2
20260906124238 66 67 2.6 4.3 0.01 0.01 0.01 91 1016.2
20260906123738 66 65 2.6 3.5 0.01 0.01 0.01 91 1016.2
20260906123238 65 49 2.6 3.5 0.01 0.01 0.01 91 1015.9
20260906122738 66 56 1.7 3.5 0.01 0.01 0.01 91 1016.3
20260906122238 66 53 1.7 2.6 0.01 0.01 0.01 91 1016.2
20260906121737 66 53 1.7 2.6 0.01 0.01 0.01 91 1016.3
20260906121238 65 56 1.7 2.6 0.01 0.01 0.01 90 1015.9
20260906120737 65 48 0.9 2.6 0.01 0.01 0.01 90 1016.0
20260906115737 65 49 0.9 3.5 0.01 0.01 0.01 90 1016.7
20260906115238 65 51 2.6 4.3 0.01 0.01 0.01 90 1016.7
20260906114737 65 57 0.9 4.3 0.01 0.01 0.01 89 1016.8
20260906114238 65 51 0.0 3.5 0.00 0.00 0.00 89 1016.8
20260906113737 65 54 2.6 3.5 0.00 0.00 0.00 88 1016.8
20260906113237 65 57 3.5 3.5 0.00 0.00 0.00 88 1016.8
20260906112737 65 61 2.6 3.5 0.00 0.00 0.00 87 1016.9
20260906112237 65 62 1.7 4.3 0.00 0.00 0.00 86 1016.9
20260906111237 65 74 3.5 4.3 0.00 0.00 0.00 84 1017.0
20260906110737 66 53 2.6 3.5 0.00 0.00 0.00 83 1017.0
20260906110236 66 44 1.7 2.6 0.00 0.00 0.00 82 1017.2
20260906105737 66 44 0.0 3.5 0.00 0.00 0.00 79 1017.4
20260906105237 66 43 1.7 3.5 0.00 0.00 0.00 79 1017.1
20260906104736 66 42 2.6 3.5 0.00 0.00 0.00 78 1017.2
20260906104236 66 59 2.6 3.5 0.00 0.00 0.00 77 1017.3
20260906103236 66 44 0.9 3.5 0.00 0.00 0.00 77 1017.2
20260906102237 67 46 2.6 3.5 0.00 0.00 0.00 73 1017.4
20260906101737 67 54 2.6 2.6 0.00 0.00 0.00 73 1017.4
20260906101236 68 52 0.0 2.6 0.00 0.00 0.00 71 1017.6
20260906100736 68 52 0.0 2.6 0.00 0.00 0.00 67 1017.6
20260906100236 68 52 1.7 3.5 0.00 0.00 0.00 65 1017.5
20260906095736 68 51 1.7 3.5 0.00 0.00 0.00 64 1017.7
20260906095236 68 52 1.7 3.5 0.00 0.00 0.00 64 1017.7
20260906094736 68 51 2.6 3.5 0.00 0.00 0.00 63 1017.7
20260906094236 68 52 2.6 3.5 0.00 0.00 0.00 63 1017.7
20260906093736 68 51 2.6 2.6 0.00 0.00 0.00 63 1017.7
20260906093235 68 48 2.6 4.3 0.00 0.00 0.00 64 1017.8
20260906092235 68 66 3.5 3.5 0.00 0.00 0.00 63 1017.8
20260906091736 68 55 0.9 3.5 0.00 0.00 0.00 63 1017.8
20260906091235 68 67 2.6 3.5 0.00 0.00 0.00 63 1017.8
20260906090236 68 52 1.7 3.5 0.00 0.00 0.00 64 1018.0
20260906085735 68 50 2.6 3.5 0.00 0.00 0.00 64 1017.8
20260906085235 68 36 1.7 1.7 0.00 0.00 0.00 64 1017.9
20260906084735 69 35 0.9 3.5 0.00 0.00 0.00 64 1018.1
20260906084235 69 35 0.9 3.5 0.00 0.00 0.00 65 1018.2
20260906083735 69 64 1.7 3.5 0.00 0.00 0.00 65 1018.2
20260906083235 69 53 2.6 3.5 0.00 0.00 0.00 65 1018.2
20260906082735 69 41 1.7 2.6 0.00 0.00 0.00 65 1018.4
20260906082235 69 40 0.9 3.5 0.00 0.00 0.00 65 1018.4
20260906081735 69 37 1.7 3.5 0.00 0.00 0.00 65 1018.4
20260906081235 69 53 0.0 0.0 0.00 0.00 0.00 66 1018.4
20260906080735 69 53 0.0 0.0 0.00 0.00 0.00 66 1018.5
20260906080235 69 70 0.0 0.0 0.00 0.00 0.00 66 1018.6
20260906075734 69 71 0.0 0.0 0.00 0.00 0.00 66 1018.6
20260906075235 69 68 0.0 0.0 0.00 0.00 0.00 66 1018.7
20260906074735 69 69 0.0 0.0 0.00 0.00 0.00 65 1018.7
20260906074234 69 69 0.0 0.0 0.00 0.00 0.00 65 1018.8
20260906073735 69 69 0.0 0.0 0.00 0.00 0.00 65 1018.9
20260906073234 69 65 0.0 0.0 0.00 0.00 0.00 65 1018.9
20260906072734 69 63 0.0 0.0 0.00 0.00 0.00 64 1019.0
20260906072234 69 61 0.0 0.0 0.00 0.00 0.00 62 1018.8
20260906071734 69 61 0.0 0.0 0.00 0.00 0.00 62 1018.9
20260906071234 69 65 0.0 0.0 0.00 0.00 0.00 62 1019.1
20260906070234 69 67 0.0 1.7 0.00 0.00 0.00 62 1018.9
20260906065235 68 70 0.9 2.6 0.00 0.00 0.00 63 1018.8
20260906064234 68 70 2.6 3.5 0.00 0.00 0.00 63 1018.7
20260906063734 68 74 0.9 3.5 0.00 0.00 0.00 63 1018.7
20260906063233 68 61 2.6 2.6 0.00 0.00 0.00 63 1018.8
20260906062734 68 57 1.7 3.5 0.00 0.00 0.00 63 1018.8
20260906062234 69 58 1.7 3.5 0.00 0.00 0.00 62 1019.0
20260906061733 69 57 3.5 3.5 0.00 0.00 0.00 62 1019.0
20260906061233 69 57 1.7 2.6 0.00 0.00 0.00 61 1019.0
20260906055733 69 57 1.7 3.5 0.00 0.00 0.00 59 1018.7
20260906055233 69 53 0.9 3.5 0.00 0.00 0.00 58 1018.7
20260906054733 69 44 1.7 2.6 0.00 0.00 0.00 58 1018.8
20260906054233 69 49 1.7 2.6 0.00 0.00 0.00 58 1018.9
20260906053733 69 49 1.7 2.6 0.00 0.00 0.00 57 1018.8
20260906052734 69 51 1.7 2.6 0.00 0.00 0.00 56 1018.8
20260906052233 69 51 0.9 2.6 0.00 0.00 0.00 56 1018.9
20260906051732 69 51 0.0 2.6 0.00 0.00 0.00 56 1018.9
20260906051232 69 55 1.7 2.6 0.00 0.00 0.00 56 1018.8
20260906050732 69 58 0.0 0.0 0.00 0.00 0.00 56 1018.8
20260906050233 69 55 0.0 0.0 0.00 0.00 0.00 56 1018.9
20260906045733 69 59 0.0 0.0 0.00 0.00 0.00 56 1018.7
20260906045232 69 59 0.0 0.0 0.00 0.00 0.00 56 1018.7
20260906044732 69 132 0.0 0.0 0.00 0.00 0.00 55 1018.8
20260906044233 69 132 0.0 0.0 0.00 0.00 0.00 55 1018.7
20260906043732 69 132 0.0 0.0 0.00 0.00 0.00 55 1018.8
20260906043232 69 132 0.0 0.0 0.00 0.00 0.00 55 1018.8
20260906041232 70 244 0.0 0.0 0.00 0.00 0.00 52 1018.7
20260906040732 70 244 0.0 0.0 0.00 0.00 0.00 52 1018.6
20260906040232 71 244 0.0 0.0 0.00 0.00 0.00 52 1018.8
20260906035732 71 244 0.0 0.0 0.00 0.00 0.00 52 1018.4
20260906035232 71 244 0.0 0.0 0.00 0.00 0.00 52 1018.4
20260906034732 72 244 0.0 1.7 0.00 0.00 0.00 52 1018.7
20260906034231 72 244 0.0 1.7 0.00 0.00 0.00 51 1018.6
20260906032732 73 244 0.0 0.0 0.00 0.00 0.00 50 1018.5
20260906031732 73 244 0.0 0.0 0.00 0.00 0.00 49 1018.3
20260906031232 73 244 0.0 0.0 0.00 0.00 0.00 49 1018.3
20260906030301 74 244 0.0 2.6 0.00 0.00 0.00 49 1018.6
20260906025731 74 244 0.0 3.5 0.00 0.00 0.00 49 1018.4
20260906024231 75 234 0.9 3.5 0.00 0.00 0.00 48 1018.3
20260906023731 75 232 0.9 3.5 0.00 0.00 0.00 48 1018.3
20260906023231 76 232 0.0 2.6 0.00 0.00 0.00 47 1018.4
20260906022730 76 232 0.0 2.6 0.00 0.00 0.00 47 1018.5
20260906021731 77 232 0.0 4.3 0.00 0.00 0.00 46 1018.5
20260906021230 77 225 3.5 4.3 0.00 0.00 0.00 46 1018.5
20260906020730 77 243 2.6 4.3 0.00 0.00 0.00 45 1018.6
20260906020219 77 242 2.6 5.2 0.00 0.00 0.00 45 1018.5
20260906015730 78 256 2.6 6.1 0.00 0.00 0.00 44 1018.7
20260906015230 78 248 0.9 7.8 0.00 0.00 0.00 44 1018.7
20260906014730 78 254 4.3 7.8 0.00 0.00 0.00 44 1018.8
20260906013230 79 241 0.9 7.0 0.00 0.00 0.00 43 1018.7
20260906012730 79 234 3.5 7.0 0.00 0.00 0.00 42 1018.7
20260906011730 80 238 2.6 5.2 0.00 0.00 0.00 42 1019.1
20260906011230 80 236 3.5 7.8 0.00 0.00 0.00 42 1019.0
20260906010730 80 227 2.6 7.8 0.00 0.00 0.00 42 1019.1
20260906010300 80 265 0.9 7.0 0.00 0.00 0.00 42 1019.0
20260906005730 80 229 4.3 7.8 0.00 0.00 0.00 41 1019.2
20260906005230 81 238 1.7 8.7 0.00 0.00 0.00 41 1019.1
20260906004730 81 270 3.5 8.7 0.00 0.00 0.00 41 1019.0
20260906004229 82 239 7.0 8.7 0.00 0.00 0.00 40 1019.2
20260906003718 82 230 3.5 8.7 0.00 0.00 0.00 40 1019.2
20260906003230 83 219 7.0 8.7 0.00 0.00 0.00 39 1019.1
20260906002729 84 229 7.8 9.6 0.00 0.00 0.00 38 1019.4
20260906002229 84 243 7.0 9.6 0.00 0.00 0.00 38 1019.3
20260906001729 84 261 7.0 11.3 0.00 0.00 0.00 37 1019.2
20260906001229 84 208 0.0 11.3 0.00 0.00 0.00 37 1019.3
20260906000300 85 206 4.3 11.3 0.00 0.00 0.00 37 1019.4
20260905235718 85 226 2.6 10.4 0.00 0.00 0.00 36 1019.3
20260905235229 85 242 0.9 8.7 0.00 0.00 0.00 36 1019.3
20260905234729 86 236 3.5 8.7 0.00 0.00 0.00 36 1019.5
20260905233729 85 238 3.5 9.6 0.00 0.00 0.00 36 1019.2
20260905233229 85 282 1.7 7.8 0.00 0.00 0.00 36 1019.2
20260905232729 86 200 2.6 7.8 0.00 0.00 0.00 35 1019.5
20260905232228 86 355 1.7 8.7 0.00 0.00 0.00 35 1019.4
20260905231729 86 225 2.6 9.6 0.00 0.00 0.00 34 1019.6
20260905231229 86 248 3.5 9.6 0.00 0.00 0.00 34 1019.5
20260905230729 87 242 3.5 8.7 0.00 0.00 0.00 33 1019.5
20260905230258 87 225 7.0 8.7 0.00 0.00 0.00 32 1019.5
20260905225729 88 229 1.7 9.6 0.00 0.00 0.00 32 1019.7
20260905224258 89 259 2.6 11.3 0.00 0.00 0.00 30 1019.7
20260905223758 89 217 6.1 11.3 0.00 0.00 0.00 30 1019.8
20260905223258 89 230 9.6 11.3 0.00 0.00 0.00 29 1019.9
20260905222758 89 209 5.2 11.3 0.00 0.00 0.00 29 1019.9
20260905221758 90 267 5.2 12.2 0.00 0.00 0.00 29 1020.1
20260905221258 90 221 3.5 12.2 0.00 0.00 0.00 29 1020.3
20260905220758 89 246 2.6 9.6 0.00 0.00 0.00 30 1020.0
20260905220258 89 236 7.8 9.6 0.00 0.00 0.00 31 1020.1
20260905215757 88 229 0.9 10.4 0.00 0.00 0.00 32 1020.3
20260905215257 88 255 7.0 10.4 0.00 0.00 0.00 31 1020.2
20260905214758 89 188 1.7 10.4 0.00 0.00 0.00 29 1020.2
20260905214257 89 251 10.4 10.4 0.00 0.00 0.00 29 1020.4
20260905213758 89 246 0.0 9.6 0.00 0.00 0.00 30 1020.3
20260905213258 87 234 4.3 7.0 0.00 0.00 0.00 30 1020.1
20260905212257 87 240 5.2 11.3 0.00 0.00 0.00 30 1020.4
20260905211757 87 294 2.6 7.0 0.00 0.00 0.00 29 1020.2
20260905211257 86 226 1.7 13.9 0.00 0.00 0.00 29 1020.3
20260905210758 86 217 1.7 13.9 0.00 0.00 0.00 29 1020.4
20260905210257 87 227 1.7 10.4 0.00 0.00 0.00 29 1020.3
20260905204757 89 260 1.7 3.5 0.00 0.00 0.00 29 1020.8
20260905204258 88 223 0.0 9.6 0.00 0.00 0.00 28 1020.8
20260905203757 87 233 2.6 10.4 0.00 0.00 0.00 29 1020.7
20260905203258 87 282 0.0 10.4 0.00 0.00 0.00 29 1020.7
20260905202757 87 267 2.6 10.4 0.00 0.00 0.00 30 1020.8
20260905201756 88 250 0.9 11.3 0.00 0.00 0.00 29 1021.1
20260905201257 88 233 6.1 10.4 0.00 0.00 0.00 29 1021.1
20260905200756 88 242 1.7 10.4 0.00 0.00 0.00 29 1021.0
20260905195757 89 246 6.1 11.3 0.00 0.00 0.00 28 1018.3
20260905195256 90 225 7.8 13.0 0.00 0.00 0.00 27 1018.1
20260905194757 90 209 5.2 13.0 0.00 0.00 0.00 27 1018.2
20260905194256 89 240 2.6 8.7 0.00 0.00 0.00 28 1018.1
20260905193756 89 197 1.7 10.4 0.00 0.00 0.00 28 1018.3
20260905193256 88 217 1.7 10.4 0.00 0.00 0.00 28 1018.2
20260905192756 89 260 3.5 10.4 0.00 0.00 0.00 27 1018.6
20260905192256 88 190 2.6 10.4 0.00 0.00 0.00 28 1018.5
20260905191256 90 246 9.6 12.2 0.00 0.00 0.00 25 1018.8
20260905190756 90 238 1.7 12.2 0.00 0.00 0.00 25 1018.8
20260905190256 89 217 6.1 12.2 0.00 0.00 0.00 26 1018.9
20260905185756 89 212 3.5 9.6 0.00 0.00 0.00 26 1018.9
20260905185256 88 238 5.2 12.2 0.00 0.00 0.00 27 1019.0
20260905184256 88 240 8.7 13.0 0.00 0.00 0.00 27 1019.1
20260905183255 86 207 2.6 10.4 0.00 0.00 0.00 29 1018.8
20260905182255 84 254 7.0 13.0 0.00 0.00 0.00 31 1018.6
20260905181756 84 256 3.5 11.3 0.00 0.00 0.00 31 1018.6
20260905181256 84 213 2.6 11.3 0.00 0.00 0.00 31 1018.7
20260905180755 85 254 4.3 10.4 0.00 0.00 0.00 32 1018.6
20260905180255 86 244 0.0 10.4 0.00 0.00 0.00 31 1018.8
20260905175755 86 231 6.1 10.4 0.00 0.00 0.00 29 1018.7
20260905175255 86 232 5.2 10.4 0.00 0.00 0.00 30 1018.7